Weather History for Kendall, FL

Change the Weather History Date:

Tuesday, November 20, 2012

  Actual Average Record
Temperature  
Mean Temperature 64 °F -  
Max Temperature 68 °F 82 °F 86 °F (1993)
Min Temperature 60 °F 64 °F 48 °F (2006)
Degree Days  
Heating Degree Days 1    
Growing Degree Days 14 (Base 50)    
Moisture  
Dew Point 60 °F    
Average Humidity 88    
Maximum Humidity 97    
Minimum Humidity 78    
Precipitation  
Precipitation 0.00 in - - ()
Sea Level Pressure  
Sea Level Pressure 30.00 in    
Wind  
Wind Speed 10 mph (NNW)    
Max Wind Speed 15 mph    
Max Gust Speed -    
Visibility 9 miles    
Events      
Averages and records for this station are not official NWS values.
T = Trace of Precipitation, MM = Missing Value Source: NWS Daily Summary

Daily Weather History Graph

Daily Weather History Graph

Search for Another Location

Airport:

Trip Planner

Search our weather history database for the weather conditions in past years. The results will help you decide how hot, cold, wet, or windy it might be!

Date:

Astronomy

Nov. 20, 2012 Rise Set
Actual Time 6:43 AM EST 5:31 PM EST
Civil Twilight 6:18 AM EST 5:55 PM EST
Nautical Twilight 5:50 AM EST 6:23 PM EST
Astronomical Twilight 5:23 AM EST 6:51 PM EST
Moon 12:37 PM EST (11/20) No Moon Set
Length of Visible Light 11h 37m
Length of Day
10h 48m
Waxing Crescent, 51% of the Moon is Illuminated
Nov 20
Waxing Crescent
Nov 28
Full
Dec 6
Last Quarter
Dec 13
New
Dec 20
First Quarter

Hourly Weather History & Observations

Time (EST) Temp. Dew Point Humidity Pressure Visibility Wind Dir Wind Speed Gust Speed Precip Events Conditions
12:53 AM 62.1 °F 57.0 °F 84% 30.04 in 10.0 mi North 11.5 mph - N/A   Overcast
1:53 AM 62.1 °F 57.0 °F 84% 30.03 in 10.0 mi NNW 9.2 mph - N/A   Overcast
2:53 AM 61.0 °F 57.0 °F 87% 30.02 in 10.0 mi North 10.4 mph - N/A   Overcast
3:53 AM 61.0 °F 57.0 °F 87% 30.01 in 10.0 mi NNW 9.2 mph - N/A   Overcast
4:53 AM 61.0 °F 57.0 °F 87% 30.01 in 10.0 mi North 10.4 mph - N/A   Overcast
5:53 AM 60.1 °F 57.0 °F 90% 30.01 in 10.0 mi North 9.2 mph - N/A   Overcast
6:53 AM 60.1 °F 57.0 °F 90% 30.03 in 10.0 mi North 8.1 mph - N/A   Overcast
7:53 AM 60.1 °F 59.0 °F 96% 30.04 in 2.0 mi NNW 11.5 mph - N/A   Overcast
8:00 AM 60.8 °F 59.0 °F 94% 30.04 in 4.0 mi NNW 11.5 mph - N/A   Overcast
8:53 AM 61.0 °F 59.0 °F 93% 30.04 in 5.0 mi NW 12.7 mph - N/A   Overcast
9:53 AM 62.1 °F 59.0 °F 90% 30.06 in 10.0 mi NNW 15.0 mph - N/A   Overcast
10:53 AM 63.0 °F 59.0 °F 87% 30.04 in 10.0 mi NNW 12.7 mph - N/A   Overcast
11:53 AM 63.0 °F 60.1 °F 90% 30.03 in 10.0 mi NNW 11.5 mph - N/A   Overcast
12:53 PM 64.0 °F 60.1 °F 87% 30.00 in 10.0 mi NNW 11.5 mph - N/A   Overcast
1:53 PM 64.4 °F 60.8 °F 88% 29.98 in 10.0 mi NNW 12.7 mph - N/A   Overcast
2:17 PM 64.4 °F 60.8 °F 88% 29.97 in 10.0 mi NNW 9.2 mph - N/A   Overcast
2:53 PM 66.0 °F 61.0 °F 84% 29.96 in 10.0 mi NW 11.5 mph - N/A   Overcast
3:53 PM 66.9 °F 61.0 °F 81% 29.96 in 10.0 mi NW 8.1 mph - N/A   Overcast
4:26 PM 68.0 °F 60.8 °F 78% 29.96 in 10.0 mi NW 8.1 mph - N/A   Overcast
4:49 PM 68.0 °F 62.6 °F 83% 29.95 in 10.0 mi NW 8.1 mph - N/A   Scattered Clouds
4:53 PM 68.0 °F 61.0 °F 78% 29.96 in 10.0 mi NW 8.1 mph - N/A   Partly Cloudy
5:53 PM 63.0 °F 61.0 °F 93% 29.95 in 10.0 mi West 5.8 mph - N/A   Clear
6:53 PM 64.0 °F 61.0 °F 90% 29.97 in 10.0 mi SW 4.6 mph - N/A   Mostly Cloudy
7:53 PM 64.0 °F 61.0 °F 90% 29.99 in 10.0 mi WSW 4.6 mph - N/A   Overcast
8:53 PM 64.0 °F 62.1 °F 93% 30.00 in 10.0 mi West 3.5 mph - N/A   Overcast
9:53 PM 61.0 °F 60.1 °F 97% 29.99 in 8.0 mi WNW 5.8 mph - N/A   Mostly Cloudy
10:53 PM 64.9 °F 61.0 °F 87% 29.99 in 10.0 mi North 9.2 mph - N/A   Scattered Clouds
11:53 PM 64.9 °F 60.1 °F 84% 29.99 in 10.0 mi North 11.5 mph - N/A   Clear